Regional Weather Roundup
Issued by NWS Jackson, KY

Home | Current Version | Previous Version | Graphics & Text | Print | Product List | Glossary On
Versions: 1 2 3 4 5 6 7 8 9 10 11 12 13 14 15 16 17 18 19 20 21 22 23 24 25 26 27 28 29 30 31 32 33 34 35 36 37 38 39 40 41 42 43 44 45 46 47 48 49 50
000
ASUS43 KJKL 280719
RWRJKL

EAST KENTUCKY HOURLY WEATHER ROUNDUP
NATIONAL WEATHER SERVICE JACKSON KY
200 AM EST SUN DEC 28 2014

NOTE: "FAIR" INDICATES FEW OR NO CLOUDS BELOW 12,000 FEET WITH
NO SIGNIFICANT WEATHER AND/OR OBSTRUCTIONS TO VISIBILITY.

* THESE REPORTS ARE NOT UNDER NWS QUALITY CONTROL AND MAY NOT
  REPORT WEATHER SUCH AS PRECIPITATION AND FOG.

KYZ079-080-083-085-087-088-110-112-115-119-120-280800
...EASTERN KENTUCKY...

CITY           SKY/WX    TMP DP  RH WIND       PRES   REMARKS
JACKSON        LGT RAIN  46  44  93 VRB5      30.07S
LONDON         LGT RAIN  47  42  83 CALM      30.08S
SOMERSET*      DRIZZLE   45  45 100 CALM      30.10S
MONTICELLO*    CLOUDY    48  46  93 CALM      30.10F FOG
MIDDLESBORO*   CLOUDY    48  45  87 CALM      30.07S
HARLAN APT*    CLOUDY    45  45 100 CALM      30.08R
HAZARD APT*    DRIZZLE   46  45  93 W5        30.08S
BLACK MTN*       N/A     41  39  93 S16         N/A
PIKEVILLE APT* RAIN      48  41  76 W8        30.07R
BIG SANDY*     CLOUDY    49  41  74 SW6       30.07R
MOREHEAD APT*  LGT RAIN  46  45  93 SW7       30.07S
ASHLAND*       CLOUDY   N/A N/A N/A W6        30.02S
$$

KYZ035-036-041-042-044-050-067-078-099-280800
...CENTRAL KENTUCKY...

CITY           SKY/WX    TMP DP  RH WIND       PRES   REMARKS
MT STERLING*   LGT RAIN  46  46 100 W5        30.07S
FLEMING/MASON* DRIZZLE   45  45 100 SW5       30.05F
DANVILLE*      CLOUDY    45  45 100 SW5       30.08R
RICHMOND*      CLOUDY    46  45  93 SW7       30.06F
LEXINGTON      CLOUDY    47  46  97 SW6       30.05F FOG
FRANKFORT      LGT RAIN  47  45  93 SW8       30.05R FOG
$$

KYZ091>093-OHZ055-061-077-WVZ005-015-034-035-042-280800
...SOUTHERN OHIO/WEST VIRGINIA...

CITY           SKY/WX    TMP DP  RH WIND       PRES   REMARKS
COVINGTON      LGT RAIN  43  39  87 N13       30.02F
COLUMBUS       LGT RAIN  46  44  93 S3        29.97F
DAYTON         LGT RAIN  38  36  92 NW10      30.04R WCI  31
WILMINGTON     RAIN      45  44  97 S7        29.99F FOG
HUNTINGTON     CLOUDY    51  43  74 SW9       30.03F
CHARLESTON     CLOUDY    53  40  61 SW18G32   30.04S
PINEVILLE*     CLOUDY    48  46  90 MISG      30.10S
BECKLEY        CLOUDY    50  29  44 N3        30.04F
BLUEFIELD      CLOUDY    58  28  32 SW8       30.03F
$$

VAZ002-007-008-TNZ017-027-036-066-071-280800
...SOUTHWEST VIRGINIA/EAST TENNESSEE...

CITY           SKY/WX    TMP DP  RH WIND       PRES   REMARKS
WISE*          CLOUDY    50  32  50 SW12      30.07S
JONESVILLE*    CLOUDY    46  46 100 CALM      30.11F
ABINGDON*      DRIZZLE   47  38  72 CALM      30.09R
BRISTOL        CLOUDY    46  41  82 CALM      30.08F
KNOXVILLE      LGT RAIN  48  43  82 NW6       30.07F
OAK RIDGE      CLOUDY    49  46  90 VRB3      30.10F
CROSSVILLE     CLOUDY    51  48  89 VRB3      30.06F
NASHVILLE      FOG       50  48  93 CALM      30.08F VSB 1/2
$$

...KEY TO REMARKS...
VSB - VISIBILITY IN MILES
WCI - WIND CHILL INDEX
HX  - HEAT INDEX

$$



USA.gov is the U.S. government's official web portal to all federal, state and local government web resources and services.